Galesburg, IL

11:53 PM CDT on September 28, 2016 (GMT -0500)
Galesburg Municipal

Weather History for KGBG - February, 2012

Change the Weather History Date:

Wednesday, February 29, 2012

  Actual Average Record
Temperature  
Mean Temperature 46 °F -  
Max Temperature 56 °F - 70 °F (1972)
Min Temperature 37 °F - -1 °F (1960)
Degree Days  
Heating Degree Days 18    
Moisture  
Dew Point 33 °F    
Average Humidity 59    
Maximum Humidity 86    
Minimum Humidity 37    
Precipitation  
Precipitation 0.00 in - - ()
Sea Level Pressure  
Sea Level Pressure 29.57 in    
Wind  
Wind Speed 19 mph (SW)    
Max Wind Speed 32 mph    
Max Gust Speed 43 mph    
Visibility 10 miles    
Events Rain , Thunderstorm    
Averages and records for this station are not official NWS values.
T = Trace of Precipitation, MM = Missing Value Source: NWS Daily Summary

Daily Weather History Graph

Daily Weather History Graph

Search for Another Location

Airport or City:

Trip Planner

Search our weather history database for the weather conditions in past years. The results will help you decide how hot, cold, wet, or windy it might be!

Date:

Astronomy

Feb. 29, 2012 Rise Set
Actual Time 6:36 AM CST 5:52 PM CST
Civil Twilight 6:09 AM CST 6:19 PM CST
Nautical Twilight 5:37 AM CST 6:51 PM CST
Astronomical Twilight 5:05 AM CST 7:23 PM CST
Moon 10:24 AM CST 12:42 AM CST
Length of Visible Light 12h 10m
Length of Day
11h 15m
Waxing Crescent, 47% of the Moon is Illuminated
Feb 29
Waxing Crescent
Feb 29
First Quarter
Mar 8
Full
Mar 14
Last Quarter
Mar 22
New

Hourly Weather History & Observations

Time (CST) Temp. Windchill Dew Point Humidity Pressure Visibility Wind Dir Wind Speed Gust Speed Precip Events Conditions
12:15 AM 49.3 °F - 43.7 °F 81% 29.58 in 10.0 mi East 13.8 mph - N/A   Overcast
12:35 AM 49.5 °F - 43.7 °F 81% 29.58 in 10.0 mi ESE 12.7 mph 21.9 mph N/A   Overcast
12:55 AM 50.0 °F - 44.2 °F 81% 29.57 in 10.0 mi SE 9.2 mph 18.4 mph N/A   Mostly Cloudy
1:15 AM 50.2 °F - 44.6 °F 81% 29.54 in 10.0 mi ESE 10.4 mph - N/A   Overcast
1:35 AM 50.4 °F - 44.8 °F 81% 29.53 in 7.0 mi ESE 10.4 mph 16.1 mph N/A Rain , Thunderstorm Rain
1:55 AM 51.3 °F - 46.4 °F 83% 29.52 in 5.0 mi SE 10.4 mph 16.1 mph N/A Rain Rain
2:15 AM 54.3 °F - 50.4 °F 86% 29.51 in 2.0 mi South 28.8 mph 38.0 mph N/A Rain Heavy Rain
2:35 AM 56.8 °F - 50.9 °F 80% 29.51 in 7.0 mi South 17.3 mph 25.3 mph N/A Rain Rain
2:55 AM 55.6 °F - 50.4 °F 83% 29.47 in 7.0 mi SSE 15.0 mph 20.7 mph N/A Rain Rain
3:15 AM 55.9 °F - 50.9 °F 83% 29.47 in 10.0 mi South 16.1 mph 21.9 mph N/A   Mostly Cloudy
3:35 AM 56.1 °F - 50.0 °F 80% 29.47 in 10.0 mi South 15.0 mph 25.3 mph N/A   Overcast
3:55 AM 56.3 °F - 49.6 °F 78% 29.46 in 10.0 mi South 16.1 mph - N/A   Mostly Cloudy
4:15 AM 55.4 °F - 49.5 °F 80% 29.47 in 10.0 mi South 16.1 mph - N/A   Scattered Clouds
4:35 AM 55.0 °F - 49.5 °F 81% 29.48 in 10.0 mi South 18.4 mph 21.9 mph N/A   Clear
4:55 AM 55.8 °F - 47.7 °F 74% 29.49 in 10.0 mi SSW 19.6 mph 27.6 mph N/A   Clear
5:15 AM 55.4 °F - 45.7 °F 70% 29.49 in 10.0 mi SSW 18.4 mph 25.3 mph N/A   Clear
5:35 AM 54.5 °F - 43.7 °F 67% 29.50 in 10.0 mi SSW 19.6 mph 27.6 mph N/A   Clear
5:55 AM 52.9 °F - 42.8 °F 69% 29.50 in 10.0 mi SSW 17.3 mph - N/A   Clear
6:15 AM 53.1 °F - 39.6 °F 60% 29.50 in 10.0 mi SSW 18.4 mph 27.6 mph N/A   Clear
6:35 AM 51.1 °F - 36.5 °F 57% 29.51 in 10.0 mi SSW 17.3 mph - N/A   Clear
6:55 AM 50.0 °F - 38.5 °F 65% 29.51 in 10.0 mi SSW 17.3 mph 25.3 mph N/A   Clear
7:15 AM 50.2 °F - 34.9 °F 56% 29.52 in 10.0 mi SSW 16.1 mph 24.2 mph N/A   Clear
7:35 AM 49.5 °F - 34.5 °F 56% 29.53 in 10.0 mi SSW 23.0 mph 28.8 mph N/A   Clear
7:55 AM 50.0 °F - 31.6 °F 49% 29.54 in 10.0 mi SW 21.9 mph 32.2 mph N/A   Clear
8:15 AM 50.2 °F - 31.5 °F 49% 29.53 in 10.0 mi SW 20.7 mph 33.4 mph N/A   Clear
8:35 AM 50.5 °F - 31.5 °F 48% 29.53 in 10.0 mi SSW 18.4 mph 26.5 mph N/A   Clear
8:55 AM 51.3 °F - 33.3 °F 50% 29.54 in 10.0 mi SSW 21.9 mph 27.6 mph N/A   Clear
9:15 AM 51.8 °F - 33.3 °F 49% 29.54 in 10.0 mi SSW 28.8 mph 36.8 mph N/A   Clear
9:35 AM 51.8 °F - 28.4 °F 41% 29.53 in 10.0 mi SW 27.6 mph 36.8 mph N/A   Clear
9:55 AM 52.0 °F - 32.4 °F 47% 29.53 in 10.0 mi SSW 24.2 mph 28.8 mph N/A   Clear
10:15 AM 50.9 °F - 30.6 °F 46% 29.53 in 10.0 mi SSW 26.5 mph 35.7 mph N/A   Clear
10:35 AM 51.1 °F - 30.7 °F 46% 29.53 in 10.0 mi SSW 28.8 mph 36.8 mph N/A   Clear
10:55 AM 51.3 °F - 28.6 °F 42% 29.53 in 10.0 mi SW 27.6 mph 39.1 mph N/A   Clear
11:15 AM 51.8 °F - 30.2 °F 44% 29.53 in 10.0 mi SSW 21.9 mph 34.5 mph N/A   Clear
11:35 AM 52.2 °F - 28.6 °F 40% 29.52 in 10.0 mi SW 25.3 mph 40.3 mph N/A   Clear
11:55 AM 52.9 °F - 30.0 °F 42% 29.51 in 10.0 mi SSW 31.1 mph 38.0 mph N/A   Clear
12:15 PM 53.4 °F - 30.0 °F 41% 29.51 in 10.0 mi SSW 29.9 mph 38.0 mph N/A   Clear
12:35 PM 52.7 °F - 28.8 °F 40% 29.51 in 10.0 mi SW 20.7 mph 40.3 mph N/A   Scattered Clouds
12:55 PM 51.8 °F - 26.4 °F 37% 29.51 in 10.0 mi SW 24.2 mph 41.4 mph N/A   Mostly Cloudy
1:15 PM 52.0 °F - 27.1 °F 38% 29.50 in 10.0 mi SW 32.2 mph 40.3 mph N/A   Scattered Clouds
1:35 PM 52.3 °F - 26.4 °F 37% 29.51 in 10.0 mi SW 25.3 mph 38.0 mph N/A   Overcast
1:55 PM 50.0 °F - 26.8 °F 41% 29.51 in 10.0 mi SW 27.6 mph 36.8 mph N/A   Overcast
2:15 PM 48.6 °F - 27.9 °F 45% 29.52 in 10.0 mi SW 25.3 mph 31.1 mph N/A   Overcast
2:35 PM 48.2 °F - 26.4 °F 43% 29.53 in 10.0 mi SW 28.8 mph 39.1 mph N/A   Overcast
2:55 PM 47.7 °F - 26.2 °F 43% 29.54 in 10.0 mi SW 24.2 mph 34.5 mph N/A   Overcast
3:15 PM 46.9 °F - 25.5 °F 43% 29.55 in 10.0 mi WSW 23.0 mph 36.8 mph N/A   Overcast
3:35 PM 46.0 °F 37.4 °F 25.7 °F 45% 29.56 in 10.0 mi SW 25.3 mph 34.5 mph N/A   Overcast
3:55 PM 45.7 °F 36.6 °F 24.6 °F 44% 29.56 in 10.0 mi SW 27.6 mph 38.0 mph N/A   Overcast
4:15 PM 45.0 °F 35.2 °F 25.7 °F 47% 29.57 in 10.0 mi WSW 29.9 mph 39.1 mph N/A   Overcast
4:35 PM 44.1 °F 34.0 °F 25.9 °F 49% 29.59 in 10.0 mi SW 29.9 mph 39.1 mph N/A   Overcast
4:55 PM 42.6 °F 32.4 °F 25.0 °F 50% 29.61 in 10.0 mi WSW 27.6 mph 42.6 mph N/A   Overcast
5:15 PM 41.9 °F 31.7 °F 25.9 °F 53% 29.63 in 10.0 mi WSW 26.5 mph 35.7 mph N/A   Overcast
5:35 PM 40.5 °F 31.2 °F 28.6 °F 63% 29.64 in 10.0 mi West 19.6 mph 32.2 mph N/A   Light Drizzle
5:55 PM 39.6 °F 31.3 °F 29.3 °F 67% 29.65 in 10.0 mi West 15.0 mph 21.9 mph N/A   Overcast
6:15 PM 40.5 °F 31.5 °F 27.9 °F 61% 29.65 in 10.0 mi WSW 18.4 mph 23.0 mph N/A   Overcast
6:35 PM 41.0 °F 31.9 °F 27.0 °F 57% 29.66 in 10.0 mi WSW 19.6 mph 25.3 mph N/A   Overcast
6:55 PM 41.0 °F 31.6 °F 26.8 °F 57% 29.66 in 10.0 mi WSW 20.7 mph 31.1 mph N/A   Overcast
7:15 PM 41.0 °F 30.2 °F 26.2 °F 56% 29.67 in 10.0 mi WSW 27.6 mph 34.5 mph N/A   Overcast
7:35 PM 39.7 °F 29.7 °F 25.7 °F 57% 29.68 in 10.0 mi WSW 21.9 mph 33.4 mph N/A   Mostly Cloudy
7:55 PM 39.7 °F 28.3 °F 26.2 °F 59% 29.68 in 10.0 mi WSW 28.8 mph 36.8 mph N/A   Mostly Cloudy
8:15 PM 39.7 °F 28.8 °F 25.7 °F 57% 29.69 in 10.0 mi WSW 26.5 mph 33.4 mph N/A   Overcast
8:35 PM 39.4 °F 27.9 °F 25.7 °F 58% 29.70 in 10.0 mi WSW 28.8 mph 35.7 mph N/A   Overcast
8:55 PM 39.0 °F 28.5 °F 25.7 °F 59% 29.71 in 10.0 mi WSW 23.0 mph 34.5 mph N/A   Overcast
9:15 PM 38.8 °F 28.0 °F 26.1 °F 60% 29.72 in 10.0 mi WSW 24.2 mph 33.4 mph N/A   Overcast
9:35 PM 38.7 °F 27.1 °F 26.2 °F 61% 29.72 in 10.0 mi West 27.6 mph 36.8 mph N/A   Overcast
9:55 PM 38.5 °F 27.1 °F 26.4 °F 62% 29.73 in 10.0 mi WSW 26.5 mph 35.7 mph N/A   Overcast
10:15 PM 38.3 °F 27.8 °F 26.8 °F 63% 29.74 in 10.0 mi WSW 21.9 mph 32.2 mph N/A   Overcast
10:35 PM 37.9 °F 26.3 °F 27.1 °F 65% 29.74 in 10.0 mi West 26.5 mph 29.9 mph N/A   Overcast
10:55 PM 37.8 °F 27.1 °F 27.1 °F 66% 29.74 in 10.0 mi West 21.9 mph 28.8 mph N/A   Overcast
11:15 PM 37.8 °F 27.7 °F 27.1 °F 66% 29.74 in 10.0 mi West 19.6 mph 34.5 mph N/A   Overcast
11:35 PM 37.4 °F 25.4 °F 27.3 °F 67% 29.75 in 10.0 mi West 27.6 mph 33.4 mph N/A   Overcast
11:55 PM 37.4 °F 26.6 °F 27.3 °F 67% 29.76 in 10.0 mi West 21.9 mph 29.9 mph N/A   Overcast